This is the latest recevied weather packets stored in our database for station/object N0KWA. If no packets are shown the sender has not sent any weather packets the latest 10 day(s).
| Time | Temp. | Humidity | Pressure | Rain* | Wind** | Luminosity | Snow |
|---|---|---|---|---|---|---|---|
| 1778018997 | 25.56° C | 78% | 1013.7 hPa | 0 mm | - | 7 W/m² | - |
| 1778018694 | 26.11° C | 77% | 1013.4 hPa | 0 mm | - | 14 W/m² | - |
| 1778018391 | 26.11° C | 76% | 1013.5 hPa | 0 mm | - | 10 W/m² | - |
| 1778018090 | 26.11° C | 75% | 1013.6 hPa | 0 mm | - | 16 W/m² | - |
| 1778017787 | 26.11° C | 74% | 1013.6 hPa | 0 mm | - | 17 W/m² | - |
| 1778017485 | 26.67° C | 73% | 1013.7 hPa | 0 mm | - | 18 W/m² | - |
| 1778017182 | 26.67° C | 74% | 1013.7 hPa | 0 mm | - | 26 W/m² | - |
| 1778016880 | 26.67° C | 73% | 1013.7 hPa | 0 mm | - | 31 W/m² | - |
| 1778016576 | 27.22° C | 73% | 1013.7 hPa | 0 mm | - | 28 W/m² | - |
| 1778016273 | 26.67° C | 71% | 1013.7 hPa | 0 mm | - | 38 W/m² | - |
| 1778015969 | 26.67° C | 70% | 1013.7 hPa | 0 mm | - | 33 W/m² | - |
| 1778015667 | 27.22° C | 72% | 1013.6 hPa | 0 mm | - | 27 W/m² | - |
| 1778015363 | 27.22° C | 71% | 1013.8 hPa | 0 mm | - | 26 W/m² | - |
| 1778015063 | 27.22° C | 69% | 1013.6 hPa | 0 mm | - | 30 W/m² | - |
| 1778014757 | 27.78° C | 67% | 1013.7 hPa | 0 mm | - | 85 W/m² | - |
| 1778014455 | 27.78° C | 70% | 1013.5 hPa | 0 mm | - | 159 W/m² | - |
| 1778014152 | 27.22° C | 70% | 1013.7 hPa | 0 mm | - | 51 W/m² | - |
| 1778013849 | 27.22° C | 70% | 1013.6 hPa | 0 mm | - | 48 W/m² | - |
| 1778013547 | 27.22° C | 69% | 1014 hPa | 0 mm | - | 59 W/m² | - |
| 1778013243 | 27.22° C | 69% | 1014 hPa | 0 mm | - | 29 W/m² | - |
| 1778012939 | 27.78° C | 68% | 1014 hPa | 0 mm | - | 69 W/m² | - |
| 1778012636 | 27.78° C | 67% | 1014 hPa | 0 mm | - | 43 W/m² | - |
| 1778012332 | 27.78° C | 67% | 1013.9 hPa | 0 mm | - | 94 W/m² | - |
| 1778012029 | 27.78° C | 67% | 1013.8 hPa | 0 mm | - | 293 W/m² | - |
| 1778011728 | 27.78° C | 65% | 1013.9 hPa | 0 mm | - | 194 W/m² | - |
* Rain latest hour (hover to see other rain measurements)
** Current wind speed in m/s (hover to see current wind gust speed)